| time (UTC) | temp C | wind direction | speed KPH | gust KPH | rain 1hr cm | rain 24hr cm | rain mn cm | humidity % | barometer mb |
| 20260906173058 | 22 | 14 | 4.8 | 14.5 | 0.00 | 0.03 | 0.03 | 83 | 1018.5 |
| 20260906171551 | 22 | 319 | 6.4 | 17.7 | 0.00 | 0.03 | 0.03 | 80 | 1018.7 |
| 20260906170050 | 23 | 13 | 1.6 | 14.5 | 0.00 | 0.03 | 0.03 | 80 | 1018.7 |
| 20260906164547 | 23 | 71 | 6.4 | 17.7 | 0.00 | 0.03 | 0.03 | 80 | 1018.6 |
| 20260906163044 | 23 | 18 | 8.0 | 17.7 | 0.00 | 0.03 | 0.03 | 80 | 1018.5 |
| 20260906161541 | 23 | 336 | 4.8 | 12.9 | 0.00 | 0.03 | 0.03 | 81 | 1018.8 |
| 20260906160038 | 23 | 345 | 6.4 | 9.7 | 0.00 | 0.03 | 0.03 | 80 | 1018.6 |
| 20260906154533 | 23 | 27 | 3.2 | 8.0 | 0.00 | 0.03 | 0.03 | 82 | 1018.6 |
| 20260906153030 | 23 | 28 | 1.6 | 4.8 | 0.00 | 0.03 | 0.03 | 82 | 1018.6 |
| 20260906151525 | 22 | 21 | 1.6 | 4.8 | 0.00 | 0.03 | 0.03 | 83 | 1018.8 |
| 20260906150021 | 21 | 25 | 0.0 | 3.2 | 0.00 | 0.03 | 0.03 | 88 | 1019.0 |
| 20260906144520 | 20 | 50 | 0.0 | 3.2 | 0.00 | 0.03 | 0.03 | 92 | 1018.9 |
| 20260906143014 | 19 | 50 | 1.6 | 6.4 | 0.00 | 0.03 | 0.03 | 94 | 1019.0 |
| 20260906141520 | 18 | 79 | 0.0 | 4.8 | 0.00 | 0.03 | 0.03 | 96 | 1019.0 |
| 20260906140007 | 18 | 89 | 0.0 | 3.2 | 0.00 | 0.03 | 0.03 | 97 | 1019.2 |
| 20260906134505 | 18 | 107 | 0.0 | 1.6 | 0.00 | 0.03 | 0.03 | 98 | 1019.2 |
| 20260906133001 | 17 | 108 | 0.0 | 0.0 | 0.00 | 0.03 | 0.03 | 98 | 1019.1 |
| 20260906131600 | 17 | 108 | 0.0 | 1.6 | 0.00 | 0.03 | 0.03 | 98 | 1019.2 |
| 20260906130145 | 16 | 108 | 0.0 | 3.2 | 0.00 | 0.03 | 0.03 | 98 | 1019.1 |
| 20260906124606 | 16 | 108 | 0.0 | 1.6 | 0.00 | 0.03 | 0.03 | 98 | 1019.1 |
| 20260906123052 | 15 | 108 | 0.0 | 1.6 | 0.00 | 0.03 | 0.03 | 98 | 1019.1 |
| 20260906121601 | 15 | 108 | 0.0 | 0.0 | 0.00 | 0.03 | 0.03 | 97 | 1018.8 |
| 20260906120048 | 15 | 108 | 0.0 | 0.0 | 0.00 | 0.03 | 0.03 | 97 | 1018.7 |
| 20260906114544 | 15 | 108 | 0.0 | 0.0 | 0.00 | 0.03 | 0.03 | 97 | 1018.4 |
| 20260906113049 | 15 | 108 | 0.0 | 0.0 | 0.00 | 0.03 | 0.03 | 97 | 1018.1 |
| 20260906111540 | 15 | 108 | 0.0 | 0.0 | 0.00 | 0.03 | 0.03 | 97 | 1018.0 |
| 20260906110039 | 15 | 108 | 0.0 | 0.0 | 0.00 | 0.03 | 0.03 | 97 | 1017.8 |
| 20260906104539 | 15 | 108 | 0.0 | 0.0 | 0.00 | 0.03 | 0.03 | 97 | 1017.7 |
| 20260906103050 | 15 | 108 | 0.0 | 0.0 | 0.00 | 0.03 | 0.03 | 97 | 1017.7 |
| 20260906101537 | 15 | 108 | 0.0 | 0.0 | 0.03 | 0.03 | 0.03 | 97 | 1017.6 |
| 20260906100037 | 15 | 108 | 0.0 | 0.0 | 0.03 | 0.03 | 0.03 | 97 | 1017.6 |
| 20260906094535 | 15 | 108 | 0.0 | 0.0 | 0.03 | 0.03 | 0.03 | 96 | 1017.7 |
| 20260906093134 | 15 | 108 | 0.0 | 0.0 | 0.03 | 0.03 | 0.03 | 97 | 1017.7 |
| 20260906091533 | 15 | 108 | 0.0 | 1.6 | 0.00 | 0.00 | 0.00 | 97 | 1017.7 |
| 20260906090033 | 15 | 108 | 0.0 | 4.8 | 0.00 | 0.00 | 0.00 | 96 | 1017.8 |
| 20260906084531 | 15 | 107 | 0.0 | 1.6 | 0.00 | 0.00 | 0.00 | 96 | 1017.9 |
| 20260906083030 | 16 | 107 | 0.0 | 1.6 | 0.00 | 0.00 | 0.00 | 96 | 1017.9 |
| 20260906081529 | 16 | 107 | 0.0 | 1.6 | 0.00 | 0.00 | 0.00 | 96 | 1017.7 |
| 20260906080030 | 16 | 107 | 0.0 | 1.6 | 0.00 | 0.00 | 0.00 | 96 | 1017.7 |
| 20260906074528 | 16 | 107 | 0.0 | 1.6 | 0.00 | 0.03 | 0.00 | 96 | 1017.6 |
| 20260906073027 | 16 | 107 | 0.0 | 0.0 | 0.00 | 0.03 | 0.00 | 96 | 1017.7 |
| 20260906071527 | 16 | 107 | 0.0 | 3.2 | 0.00 | 0.03 | 0.00 | 96 | 1017.7 |
| 20260906070026 | 16 | 27 | 0.0 | 0.0 | 0.00 | 0.03 | 0.00 | 96 | 1017.7 |
| 20260906064533 | 16 | 27 | 0.0 | 1.6 | 0.00 | 0.03 | 0.00 | 95 | 1017.8 |
| 20260906063024 | 16 | 27 | 0.0 | 0.0 | 0.00 | 0.03 | 0.00 | 95 | 1017.8 |
| 20260906061525 | 16 | 27 | 0.0 | 0.0 | 0.00 | 0.03 | 0.00 | 95 | 1018.1 |
| 20260906060021 | 16 | 27 | 0.0 | 0.0 | 0.00 | 0.03 | 0.00 | 95 | 1017.7 |
| 20260906054528 | 17 | 27 | 0.0 | 1.6 | 0.00 | 0.03 | 0.00 | 95 | 1017.3 |
| 20260906053018 | 17 | 27 | 0.0 | 0.0 | 0.00 | 0.03 | 0.00 | 95 | 1017.5 |
| 20260906051514 | 17 | 27 | 0.0 | 1.6 | 0.00 | 0.03 | 0.00 | 94 | 1017.4 |
| 20260906050011 | 17 | 27 | 0.0 | 1.6 | 0.00 | 0.03 | 0.00 | 94 | 1017.3 |
| 20260906044510 | 18 | 22 | 0.0 | 0.0 | 0.00 | 0.03 | 0.03 | 95 | 1017.4 |
| 20260906043020 | 18 | 22 | 0.0 | 1.6 | 0.00 | 0.03 | 0.03 | 95 | 1017.4 |
| 20260906041509 | 18 | 24 | 0.0 | 3.2 | 0.00 | 0.03 | 0.03 | 95 | 1017.0 |
| 20260906040009 | 18 | 71 | 0.0 | 3.2 | 0.00 | 0.03 | 0.03 | 96 | 1016.8 |
| 20260906034508 | 17 | 53 | 1.6 | 4.8 | 0.00 | 0.03 | 0.03 | 96 | 1017.0 |
| 20260906033008 | 17 | 4 | 0.0 | 4.8 | 0.00 | 0.03 | 0.03 | 96 | 1017.0 |
| 20260906031509 | 17 | 4 | 0.0 | 6.4 | 0.00 | 0.03 | 0.03 | 96 | 1017.0 |
| 20260906030007 | 17 | 25 | 0.0 | 3.2 | 0.00 | 0.03 | 0.03 | 95 | 1016.7 |
| 20260906024508 | 17 | 24 | 0.0 | 1.6 | 0.00 | 0.03 | 0.03 | 95 | 1016.9 |
| 20260906023006 | 17 | 24 | 0.0 | 4.8 | 0.00 | 0.03 | 0.03 | 95 | 1016.7 |
| 20260906021510 | 17 | 50 | 0.0 | 3.2 | 0.00 | 0.03 | 0.03 | 95 | 1016.7 |
| 20260906020006 | 17 | 50 | 0.0 | 0.0 | 0.00 | 0.03 | 0.03 | 94 | 1016.6 |
| 20260906014513 | 17 | 50 | 0.0 | 0.0 | 0.00 | 0.03 | 0.03 | 93 | 1016.5 |
| 20260906013007 | 17 | 49 | 0.0 | 4.8 | 0.00 | 0.03 | 0.03 | 92 | 1016.4 |
| 20260906011606 | 17 | 50 | 0.0 | 1.6 | 0.00 | 0.03 | 0.03 | 90 | 1016.4 |
| 20260906010057 | 18 | 50 | 0.0 | 1.6 | 0.00 | 0.03 | 0.03 | 90 | 1016.4 |
| 20260906004556 | 18 | 50 | 0.0 | 0.0 | 0.00 | 0.03 | 0.03 | 88 | 1016.4 |
| 20260906003055 | 19 | 50 | 0.0 | 0.0 | 0.00 | 0.03 | 0.03 | 88 | 1016.5 |
| 20260906001554 | 20 | 50 | 0.0 | 3.2 | 0.00 | 0.03 | 0.03 | 89 | 1016.6 |
| 20260906000054 | 20 | 50 | 0.0 | 1.6 | 0.00 | 0.03 | 0.03 | 89 | 1016.7 |
| 20260905234554 | 20 | 50 | 0.0 | 4.8 | 0.00 | 0.03 | 0.03 | 90 | 1016.5 |
| 20260905233053 | 20 | 54 | 4.8 | 14.5 | 0.00 | 0.03 | 0.03 | 90 | 1016.4 |
| 20260905231552 | 20 | 47 | 4.8 | 14.5 | 0.00 | 0.03 | 0.03 | 89 | 1016.4 |
| 20260905230052 | 20 | 40 | 8.0 | 17.7 | 0.00 | 0.03 | 0.03 | 88 | 1016.7 |
| 20260905224551 | 20 | 38 | 6.4 | 16.1 | 0.00 | 0.03 | 0.03 | 86 | 1016.7 |
| 20260905223054 | 20 | 61 | 4.8 | 16.1 | 0.00 | 0.03 | 0.03 | 86 | 1016.7 |
| 20260905221550 | 21 | 48 | 3.2 | 16.1 | 0.00 | 0.03 | 0.03 | 85 | 1016.8 |
| 20260905220050 | 21 | 40 | 4.8 | 16.1 | 0.00 | 0.03 | 0.03 | 86 | 1016.8 |
| 20260905214550 | 21 | 25 | 4.8 | 17.7 | 0.00 | 0.03 | 0.03 | 85 | 1017.0 |
| 20260905213049 | 21 | 54 | 8.0 | 19.3 | 0.00 | 0.03 | 0.03 | 84 | 1016.9 |
| 20260905211548 | 21 | 37 | 6.4 | 11.3 | 0.00 | 0.03 | 0.03 | 83 | 1017.0 |
| 20260905210048 | 21 | 33 | 6.4 | 17.7 | 0.00 | 0.03 | 0.03 | 83 | 1017.1 |
| 20260905204547 | 22 | 42 | 6.4 | 16.1 | 0.00 | 0.03 | 0.03 | 83 | 1017.1 |
| 20260905203048 | 22 | 42 | 4.8 | 17.7 | 0.00 | 0.03 | 0.03 | 82 | 1017.2 |
| 20260905201547 | 22 | 52 | 4.8 | 16.1 | 0.00 | 0.03 | 0.03 | 82 | 1017.3 |
| 20260905200050 | 22 | 336 | 6.4 | 16.1 | 0.00 | 0.03 | 0.03 | 80 | 1017.4 |
| 20260905194547 | 22 | 12 | 6.4 | 19.3 | 0.00 | 0.03 | 0.03 | 79 | 1017.2 |
| 20260905193050 | 22 | 32 | 9.7 | 19.3 | 0.00 | 0.03 | 0.03 | 78 | 1017.3 |
| 20260905191546 | 22 | 22 | 3.2 | 12.9 | 0.00 | 0.03 | 0.03 | 80 | 1017.2 |
| 20260905190054 | 22 | 56 | 3.2 | 12.9 | 0.00 | 0.03 | 0.03 | 80 | 1017.1 |
| 20260905184545 | 22 | 2 | 4.8 | 14.5 | 0.00 | 0.03 | 0.03 | 82 | 1017.2 |
| 20260905183042 | 21 | 8 | 6.4 | 17.7 | 0.00 | 0.03 | 0.03 | 83 | 1017.2 |
| 20260905181546 | 21 | 56 | 4.8 | 17.7 | 0.00 | 0.03 | 0.03 | 85 | 1017.3 |
| 20260905180044 | 21 | 31 | 4.8 | 17.7 | 0.00 | 0.03 | 0.03 | 86 | 1017.3 |
| 20260905174541 | 21 | 349 | 1.6 | 12.9 | 0.00 | 0.03 | 0.03 | 86 | 1017.4 |